{"data":{"norad_id":60464,"epoch":"2026-09-22T23:46:45.994368Z","epoch_age_seconds":70913,"freshness":"FRESH","line1":"1 60464U 24148G   26265.99081012  .00005814  00000+0  19061-3 0  9997","line2":"2 60464  35.0026 246.7957 0006396 321.4378  38.5882 15.30940460117274","mean_motion":15.3094046,"eccentricity":0.0006396,"inclination_deg":35.0026,"raan_deg":246.7957,"arg_perigee_deg":321.4378,"mean_anomaly_deg":38.5882,"bstar":0.00019061,"rev_number":11727,"period_min":94.059830386872,"perigee_km":468.62309000299,"apogee_km":477.38707095234,"semimajor_km":6851.1420804777,"source":"CELESTRAK","updated_at":"2026-09-23T09:00:20.619705Z"}}